Location: USNO
(38.9242°N, 77.0663°W)
Time: 08:56:50
(UTC-04:00)

OTV 5 (USA 277) - Pass Details

Date: 12 October 2017
Orbit: 404 x 417 km, 43.0° (Epoch: 07 September)

Event Time Altitude Azimuth Distance (km) Brightness Sun altitude
Rises 21:14:55 0° 281° (W) 2,354 ? -31.9°
Reaches altitude 10° 21:17:07 10° 289° (WNW) 1,490 ? -32.3°
Enters shadow 21:17:10 10° 290° (WNW) 1,474 ? -32.3°
